Phuket, Thailand

6:35 AM ICT on February 26, 2017 (GMT +0700)
Phuket International

Weather History for VTSP - February, 2013

Change the Weather History Date:

Thursday, February 14, 2013

  Actual Average Record
Temperature  
Mean Temperature 83 °F -  
Max Temperature 93 °F 91 °F 98 °F (2003)
Min Temperature 73 °F 75 °F 68 °F (2014)
Cooling Degree Days 18    
Growing Degree Days 33 (Base 50)    
Moisture  
Dew Point 70 °F    
Average Humidity 68    
Maximum Humidity 89    
Minimum Humidity 44    
Precipitation  
Precipitation 0.00 in 0.06 in - ()
Sea Level Pressure  
Sea Level Pressure 29.81 in    
Wind  
Wind Speed 4 mph ()    
Max Wind Speed 16 mph    
Max Gust Speed -    
Visibility 5.9 miles    
Events      
Averages and records for this station are not official NWS values.
T = Trace of Precipitation, MM = Missing Value Source: Averaged Metar Reports

Daily Weather History Graph

Daily Weather History Graph

Search for Another Location

Airport or City:

Trip Planner

Search our weather history database for the weather conditions in past years. The results will help you decide how hot, cold, wet, or windy it might be!

Date:

Astronomy

Feb. 14, 2013 Rise Set
Actual Time 6:45 AM ICT 6:36 PM ICT
Civil Twilight 6:23 AM ICT 6:58 PM ICT
Nautical Twilight 5:58 AM ICT 7:23 PM ICT
Astronomical Twilight 5:34 AM ICT 7:47 PM ICT
Moon 9:29 AM ICT (2/14) 10:02 PM ICT (2/14)
Length of Visible Light 12h 34m
Length of Day
11h 51m
Waxing Crescent, 17% of the Moon is Illuminated
Feb 14
Waxing Crescent
Feb 18
First Quarter
Feb 26
Full
Mar 5
Last Quarter
Mar 12
New

Hourly Weather History & Observations

Time (ICT) Temp. Heat Index Dew Point Humidity Pressure Visibility Wind Dir Wind Speed Gust Speed Precip Events Conditions
12:00 AM 77.0 °F - 71.6 °F 83% 29.86 in 5.6 mi Calm Calm - N/A   Mostly Cloudy
12:30 AM 75.2 °F - 71.6 °F 89% 29.86 in 5.6 mi Calm Calm - N/A   Mostly Cloudy
1:00 AM 79 °F - 72 °F 72% 29.83 in 6 mi Calm Calm - -   Mist
1:00 AM 75.2 °F - 69.8 °F 83% 29.86 in 5.6 mi Calm Calm - N/A   Scattered Clouds
1:30 AM 75.2 °F - 69.8 °F 83% 29.86 in 5.6 mi Calm Calm - N/A   Scattered Clouds
2:00 AM 73.4 °F - 69.8 °F 88% 29.83 in 5.6 mi Calm Calm - N/A   Scattered Clouds
2:30 AM 73.4 °F - 69.8 °F 88% 29.83 in 5.6 mi Calm Calm - N/A   Scattered Clouds
3:00 AM 75.2 °F - 69.8 °F 83% 29.80 in 5.6 mi Calm Calm - N/A   Scattered Clouds
3:30 AM 75.2 °F - 69.8 °F 83% 29.80 in 5.6 mi ENE 3.5 mph - N/A   Scattered Clouds
4:00 AM 77.0 °F - 69.8 °F 78% 29.77 in 5.6 mi ENE 6.9 mph - N/A   Scattered Clouds
5:00 AM 77.0 °F - 69.8 °F 78% 29.80 in 5.6 mi Calm Calm - N/A   Scattered Clouds
5:30 AM 75.2 °F - 69.8 °F 83% 29.80 in 5.6 mi Calm Calm - N/A   Scattered Clouds
6:00 AM 75.2 °F - 69.8 °F 83% 29.80 in 5.6 mi Calm Calm - N/A   Scattered Clouds
6:30 AM 75.2 °F - 69.8 °F 83% 29.80 in 5.6 mi Variable 2.3 mph - N/A   Scattered Clouds
7:00 AM 75 °F - 71 °F 85% 29.80 in 6 mi Calm Calm - -   Scattered Clouds
7:00 AM 75.2 °F - 69.8 °F 83% 29.83 in 5.6 mi Calm Calm - N/A   Scattered Clouds
7:30 AM 77.0 °F - 69.8 °F 78% 29.83 in 6.2 mi Calm Calm - N/A   Scattered Clouds
8:00 AM 80.6 °F 84.6 °F 71.6 °F 74% 29.83 in 6.2 mi Variable 1.2 mph - N/A   Scattered Clouds
8:30 AM 82.4 °F 86.3 °F 69.8 °F 66% 29.86 in 6.2 mi East 8.1 mph - N/A   Partly Cloudy
9:00 AM 84.2 °F 88.4 °F 69.8 °F 62% 29.86 in 6.2 mi East 13.8 mph - N/A   Partly Cloudy
9:30 AM 86.0 °F 90.4 °F 69.8 °F 58% 29.86 in 6.2 mi East 15.0 mph - N/A   Partly Cloudy
10:00 AM 87.8 °F 92.6 °F 69.8 °F 55% 29.86 in 6.2 mi East 13.8 mph - N/A   Partly Cloudy
10:30 AM 87.8 °F 92.6 °F 69.8 °F 55% 29.86 in 6.2 mi East 13.8 mph - N/A   Scattered Clouds
11:00 AM 87.8 °F 92.6 °F 69.8 °F 55% 29.86 in 6.2 mi ENE 13.8 mph - N/A   Partly Cloudy
11:30 AM 89.6 °F 94.7 °F 69.8 °F 52% 29.86 in 6.2 mi ESE 16.1 mph - N/A   Partly Cloudy
12:00 PM 89.6 °F 94.7 °F 69.8 °F 52% 29.83 in 6.2 mi East 11.5 mph - N/A   Partly Cloudy
12:30 PM 89.6 °F 94.7 °F 69.8 °F 52% 29.83 in 6.2 mi East 11.5 mph - N/A   Partly Cloudy
1:00 PM 90 °F - 72 °F 46% 29.82 in 6 mi East 8.1 mph - -   Scattered Clouds
1:00 PM 89.6 °F 94.7 °F 69.8 °F 52% 29.80 in 6.2 mi East 12.7 mph - N/A   Partly Cloudy
1:30 PM 91.4 °F 96.8 °F 69.8 °F 49% 29.80 in 6.2 mi East 11.5 mph - N/A   Partly Cloudy
2:00 PM 91.4 °F 96.8 °F 69.8 °F 49% 29.77 in 6.2 mi East 12.7 mph - N/A   Partly Cloudy
2:30 PM 93.2 °F 97.7 °F 68.0 °F 44% 29.77 in 6.2 mi East 8.1 mph - N/A   Partly Cloudy
3:00 PM 93.2 °F 98.8 °F 69.8 °F 46% 29.77 in 6.2 mi Variable 11.5 mph - N/A   Partly Cloudy
3:30 PM 91.4 °F 96.8 °F 69.8 °F 49% 29.74 in 6.2 mi East 13.8 mph - N/A   Partly Cloudy
4:00 PM 93.2 °F 97.7 °F 68.0 °F 44% 29.74 in 6.2 mi East 12.7 mph - N/A   Partly Cloudy
4:30 PM 91.4 °F 96.8 °F 69.8 °F 49% 29.74 in 6.2 mi ENE 11.5 mph - N/A   Partly Cloudy
5:00 PM 91.4 °F 95.4 °F 68.0 °F 46% 29.74 in 6.2 mi East 9.2 mph - N/A   Partly Cloudy
5:30 PM 89.6 °F 94.7 °F 69.8 °F 52% 29.74 in 6.2 mi NNW 11.5 mph - N/A   Scattered Clouds
6:00 PM 84.2 °F 89.6 °F 71.6 °F 66% 29.77 in 6.2 mi WNW 11.5 mph - N/A   Scattered Clouds
6:30 PM 82.4 °F 87.2 °F 71.6 °F 70% 29.77 in 6.2 mi West 9.2 mph - N/A   Mostly Cloudy
7:00 PM 83 °F - 73 °F 64% 29.73 in 6 mi NNW 5.8 mph - -   Scattered Clouds
7:00 PM 82.4 °F 87.2 °F 71.6 °F 70% 29.77 in 6.2 mi NNW 5.8 mph - N/A   Mostly Cloudy
7:30 PM 82.4 °F 87.2 °F 71.6 °F 70% 29.80 in 6.2 mi Calm Calm - N/A   Mostly Cloudy
8:00 PM 82.4 °F 86.3 °F 69.8 °F 66% 29.80 in 6.2 mi WSW 5.8 mph - N/A   Mostly Cloudy
8:30 PM 82.4 °F 87.2 °F 71.6 °F 70% 29.83 in 5.6 mi Calm Calm - N/A   Scattered Clouds
9:00 PM 78.8 °F - 71.6 °F 78% 29.83 in 5.6 mi Variable 1.2 mph - N/A   Scattered Clouds
9:30 PM 78.8 °F - 71.6 °F 78% 29.86 in 5.6 mi Calm Calm - N/A   Scattered Clouds
10:00 PM 77.0 °F - 71.6 °F 83% 29.86 in 5.6 mi Calm Calm - N/A   Scattered Clouds
10:30 PM 77.0 °F - 73.4 °F 89% 29.86 in 5.6 mi Calm Calm - N/A   Scattered Clouds
11:00 PM 77.0 °F - 73.4 °F 89% 29.89 in 5.6 mi East 5.8 mph - N/A   Scattered Clouds
11:30 PM 82.4 °F 86.3 °F 69.8 °F 66% 29.86 in 5.6 mi East 9.2 mph - N/A   Scattered Clouds